Home > Weather > Basseterre > Past weeks

Flag for Saint Kitts and Nevis Past Weather in Basseterre, Saint Kitts and Nevis — Yesterday and Last 2 Weeks

Now
86 °F

Passing clouds.


Feels Like: 97 °F
Forecast: N/A
Wind: 9 mph from East

Location: Golden Rock

Current Time: Aug 25, 2016 at 6:15:46 PM

Latest Report: Aug 25, 2016 at 5:00 PM


Visibility: N/A

Pressure: 29.89 "Hg

Humidity: 75%

Dew Point: 77 °F

Location of BasseterreLocation

Past Weather in Basseterre — Graph

°F

Basseterre Temperature Yesterday

Maximum temperature yesterday: 84 °F (at 2:00 PM)
Minimum temperature yesterday: 75 °F (at 10:00 AM)
Average temperature yesterday: 80 °F

High & Low Weather Summary for the Past Weeks

 TemperatureHumidityPressure
High90 °F (Aug 17, 12:00 PM)100% (Aug 24, 7:00 AM)30.07 "Hg (Aug 24, 7:00 AM)
Low75 °F (Aug 24, 10:00 AM)59% (Aug 22, 3:00 PM)29.83 "Hg (Aug 24, 6:00 AM)
Average85 °F75%29.99 "Hg
* Reported Aug 10 5:00 PM — Aug 25 5:00 PM, Basseterre, Weather by CustomWeather, © 2016

Note: Actual official high and low records may vary slightly from our data, if they occured in-between our weather recording intervals... More about our weather records

Advertising

Basseterre Weather History for the Previous 24 Hours

Scroll right to see more
 ConditionsComfort  
Time TempWeatherWind HumidityBarometerVisibility
5:00 PM
Thu, Aug 25
86 °FPassing clouds.9 mph75%29.89 "HgN/A
4:00 PM86 °FPassing clouds.12 mph70%29.89 "HgN/A
3:00 PM88 °FPassing clouds.13 mph70%29.92 "HgN/A
2:00 PM88 °FPassing clouds.10 mph70%29.92 "HgN/A
1:00 PM88 °FPassing clouds.13 mph70%29.92 "HgN/A
12:00 PM84 °FPassing clouds.12 mph84%29.95 "HgN/A
11:00 AM86 °FScattered clouds.12 mph79%29.95 "HgN/A
10:00 AM86 °FPassing clouds.12 mph75%29.95 "HgN/A
9:00 AM84 °FPassing clouds.12 mph79%29.95 "HgN/A
8:00 AM84 °FScattered clouds.12 mph79%29.95 "HgN/A
7:00 AM82 °FScattered clouds.16 mph84%29.95 "HgN/A
6:00 AM82 °FPartly sunny.15 mph84%29.92 "HgN/A
10:00 PM
Wed, Aug 24
81 °FPassing clouds.12 mph89%29.98 "HgN/A
9:00 PM81 °FPassing clouds.8 mph89%29.95 "HgN/A
8:00 PM82 °FPassing clouds.7 mph84%29.95 "HgN/A
7:00 PM82 °FPassing clouds.9 mph79%29.92 "HgN/A
6:00 PM82 °FPartly sunny.8 mph84%29.92 "HgN/A
Weather by CustomWeather, © 2016

See weather overviewHow to use our weather pages